Vorticity
19 9 -4 4 -4 -11 0 13 -4 10 6 3 6 5 5 7 7 6 4 3 3 4 5 6 5 5 5 4 5 5 5 6 5 5 5 6 6 6 7 7 7 8 7
10 11 13 10 12 11 -4 20 13 2 9 10 6 4 5 5 7 6 6 5 4 4 4 5 5 4 4 5 4 4 5 5 7 6 6 5 6 5 5 5 5 5 6
7 15 3 22 -10 5 41 12 4 -3 6 7 6 4 4 8 8 6 6 5 6 6 6 5 3 4 4 3 3 4 5 4 4 2 2 3 3 3 3 3 3 4 4
5 12 13 2 -7 22 -17 5 4 27 8 6 6 6 5 7 4 6 6 6 6 6 4 5 5 4 4 4 5 5 4 4 4 5 5 6 5 5 4 4 3 3 4
11 7 16 15 -7 23 13 19 7 8 6 7 7 4 7 5 6 6 6 6 5 5 6 4 5 6 7 7 8 7 7 9 11 7 6 5 5 5 4 6 6 6 6
3 20 17 4 10 18 -11 4 6 11 9 8 6 5 4 4 5 5 3 4 5 4 4 5 6 6 9 13 17 12 9 6 5 5 5 6 7 7 7 8 8 8 8
15 -2 2 20 11 18 13 34 19 -15 7 7 5 3 3 4 6 4 5 5 4 4 5 5 6 9 12 8 5 6 6 4 3 6 6 5 5 6 7 7 8 7 7
12 8 15 2 7 -15 35 6 14 -7 8 5 4 4 5 7 6 6 4 4 3 4 4 6 7 10 8 6 7 4 2 5 4 4 4 6 7 8 8 7 7 7 7
11 11 16 5 -4 14 51 12 7 15 8 4 4 4 5 5 4 3 4 4 5 5 5 7 8 7 10 4 4 4 4 3 4 6 7 6 6 5 4 5 5 5 6
10 11 13 7 -38 -21 11 28 9 -14 6 6 4 6 6 5 4 4 4 5 4 6 7 8 8 7 6 4 3 2 3 5 5 7 8 6 3 3 2 4 3 4 4
-0 6 17 3 14 26 -5 42 -3 5 9 6 7 4 1 4 3 3 5 4 5 4 1 5 8 7 1 4 2 5 6 5 7 7 6 4 2 -0 5 3 3 3 5
8 21 -0 -4 83 22 -10 17 10 13 0 -2 3 1 5 4 3 4 3 3 -0 4 12 9 6 7 4 1 7 6 5 5 5 5 4 3 -0 3 6 5 5 6 7
26 -3 7 -17 -0 47 25 34 -0 9 17 7 3 5 3 2 2 2 3 9 15 6 13 7 6 6 2 4 7 6 5 6 5 3 5 8 9 4 0 -1 5 6 7
3 21 -2 1 4 54 44 8 2 4 1 4 5 3 2 1 4 3 3 12 -9 -1 11 8 5 6 2 6 5 5 4 2 1 3 1 2 4 7 13 11 8 6 8
5 10 12 11 0 12 7 -7 24 32 2 30 8 4 3 6 2 4 4 10 4 -9 6 8 6 5 5 7 5 4 3 2 0 1 3 2 5 7 8 5 7 8 5
12 -0 22 -6 -2 17 13 7 28 -0 -15 13 2 2 4 4 2 1 6 -1 9 2 3 8 6 5 5 5 5 4 3 2 1 2 2 1 0 4 5 0 7 5 6
-12 16 5 8 -8 45 6 24 18 7 -2 8 5 5 4 7 2 4 -1 -6 -8 5 4 8 8 4 5 4 4 4 3 2 2 2 1 2 -1 2 0 7 6 9 4
9 -19 -3 16 -3 16 7 -13 5 23 3 6 2 2 6 -3 -2 3 7 11 -11 4 3 8 8 5 5 3 4 3 2 1 1 1 0 0 2 0 2 3 5 4 5
21 32 -2 20 7 -40 17 23 2 43 7 8 3 7 5 -4 2 9 -4 -7 -5 4 4 7 9 7 5 3 3 2 2 1 1 1 0 1 1 2 1 6 5 5 8
19 21 21 -1 1 14 -2 19 1 13 10 10 1 9 1 5 9 -2 4 16 -5 3 6 9 8 6 5 4 3 3 2 2 1 1 1 2 2 3 3 5 13 15 7
10 21 26 31 14 -0 20 7 32 40 24 8 15 1 -9 8 9 -10 -9 5 -2 8 5 6 6 5 6 5 3 2 3 2 1 2 4 5 4 3 10 6 17 20 5
9 9 11 20 32 25 -0 17 2 10 16 13 6 14 23 2 -5 7 8 -3 5 6 5 5 4 4 3 3 4 8 2 1 6 5 21 18 15 -6 14 -5 7 17 8
6 8 9 8 14 24 22 10 23 12 12 19 18 25 -3 16 16 -5 11 -5 4 3 3 3 4 2 3 4 5 2 30 13 10 9 10 18 21 15 10 7 18 10 7
4 7 9 8 7 11 19 17 18 15 15 20 22 21 29 18 9 9 -1 1 4 2 3 3 3 4 2 4 21 -7 5 39 -5 7 -7 8 -4 11 8 8 12 16 14
5 3 5 9 8 7 10 5 5 6 11 11 11 12 11 7 10 1 4 8 2 5 3 2 2 1 3 -2 5 -2 10 8 -10 9 7 15 9 9 7 8 15 12 7
5 3 3 3 6 8 7 7 5 6 6 5 7 5 9 7 5 9 10 6 6 5 3 2 1 3 4 10 2 -1 6 6 6 8 8 11 -6 7 9 1 13 5 5
Height
3118 3120 3121 3122 3123 3126 3128 3131 3140 3144 3144 3142 3143 3143 3143 3144 3146 3145 3146 3146 3148 3150 3151 3153 3155 3156 3156 3157 3157 3157 3158 3158 3157 3158 3157 3158 3158 3158 3159 3158 3159 3158 3158
3117 3118 3119 3120 3121 3124 3123 3130 3136 3141 3144 3142 3142 3142 3142 3142 3145 3146 3146 3148 3149 3152 3153 3154 3156 3157 3158 3158 3158 3158 3158 3160 3159 3159 3160 3159 3161 3159 3160 3160 3161 3160 3160
3111 3114 3117 3118 3119 3119 3121 3131 3134 3138 3141 3141 3140 3141 3143 3143 3144 3145 3147 3149 3150 3152 3154 3155 3157 3158 3159 3159 3159 3159 3160 3161 3161 3160 3162 3160 3162 3161 3161 3161 3162 3162 3162
3111 3113 3117 3116 3118 3119 3121 3124 3131 3134 3138 3140 3141 3142 3142 3143 3144 3145 3147 3149 3150 3151 3153 3154 3157 3158 3159 3159 3159 3160 3160 3161 3162 3161 3163 3161 3162 3162 3162 3162 3163 3162 3162
3109 3110 3111 3114 3116 3117 3114 3122 3129 3132 3135 3139 3140 3141 3139 3142 3143 3145 3146 3147 3149 3150 3152 3155 3157 3157 3158 3159 3160 3161 3162 3162 3164 3163 3164 3163 3163 3163 3164 3164 3164 3163 3163
3106 3107 3108 3110 3111 3110 3114 3113 3128 3131 3133 3136 3138 3139 3139 3141 3143 3145 3146 3147 3148 3150 3152 3155 3156 3156 3157 3158 3160 3162 3162 3162 3164 3164 3164 3164 3164 3165 3165 3166 3165 3165 3164
3102 3104 3105 3105 3103 3105 3106 3107 3123 3127 3131 3134 3137 3139 3139 3141 3143 3144 3145 3147 3149 3150 3152 3155 3157 3157 3157 3159 3160 3162 3163 3163 3164 3164 3165 3165 3165 3165 3165 3166 3166 3165 3164
3097 3098 3099 3099 3100 3104 3107 3111 3120 3124 3129 3134 3137 3138 3139 3141 3143 3145 3145 3147 3148 3150 3151 3154 3157 3158 3158 3160 3161 3162 3163 3164 3165 3166 3166 3165 3166 3166 3166 3166 3166 3165 3165
3094 3094 3095 3097 3096 3101 3105 3107 3106 3120 3127 3133 3136 3138 3140 3140 3142 3144 3145 3147 3149 3149 3151 3155 3157 3159 3159 3160 3161 3162 3163 3164 3166 3167 3166 3167 3167 3166 3166 3166 3167 3166 3166
3092 3095 3094 3097 3097 3098 3102 3102 3109 3115 3124 3133 3134 3137 3139 3140 3143 3145 3145 3147 3148 3149 3150 3156 3158 3158 3160 3160 3161 3163 3163 3164 3166 3167 3167 3167 3168 3167 3168 3168 3167 3167 3166
3089 3092 3093 3094 3091 3091 3093 3102 3105 3113 3123 3131 3133 3135 3137 3139 3140 3143 3145 3148 3148 3150 3149 3151 3157 3158 3161 3162 3163 3162 3163 3166 3167 3168 3168 3169 3169 3169 3168 3167 3167 3166 3165
3086 3090 3091 3091 3082 3079 3088 3098 3103 3117 3123 3126 3130 3135 3136 3139 3140 3141 3145 3149 3150 3151 3153 3152 3156 3158 3160 3161 3162 3163 3165 3166 3167 3168 3169 3169 3169 3169 3169 3168 3167 3166 3165
3086 3087 3088 3087 3089 3087 3088 3093 3099 3109 3114 3124 3129 3132 3135 3138 3139 3143 3147 3151 3151 3153 3155 3155 3157 3158 3160 3161 3162 3163 3164 3166 3168 3169 3169 3169 3169 3168 3168 3167 3167 3167 3165
3086 3086 3086 3087 3090 3091 3092 3099 3104 3108 3113 3124 3127 3130 3133 3138 3141 3144 3146 3150 3151 3153 3155 3156 3156 3160 3161 3161 3162 3162 3163 3165 3167 3168 3168 3168 3168 3167 3166 3166 3167 3165 3164
3084 3087 3088 3091 3092 3091 3093 3098 3104 3107 3115 3120 3126 3129 3133 3138 3141 3144 3147 3150 3151 3154 3155 3155 3157 3159 3162 3163 3162 3163 3163 3165 3166 3166 3167 3167 3166 3166 3166 3166 3166 3164 3163
3081 3084 3087 3089 3091 3094 3096 3099 3103 3110 3115 3121 3125 3129 3133 3138 3141 3143 3146 3149 3152 3154 3154 3154 3156 3159 3161 3162 3162 3162 3164 3165 3165 3166 3166 3166 3165 3165 3165 3164 3164 3162 3161
3075 3080 3084 3087 3089 3091 3094 3101 3106 3111 3115 3121 3124 3128 3131 3136 3139 3142 3146 3149 3152 3153 3153 3155 3156 3158 3160 3161 3161 3161 3162 3163 3164 3164 3164 3163 3163 3162 3162 3162 3160 3159 3159
3075 3077 3083 3086 3091 3093 3097 3099 3106 3106 3111 3118 3122 3127 3129 3133 3139 3142 3145 3148 3151 3153 3153 3155 3156 3157 3159 3158 3159 3160 3161 3161 3161 3161 3161 3160 3160 3160 3159 3159 3158 3157 3154
3074 3076 3081 3086 3088 3090 3095 3098 3101 3106 3109 3116 3119 3124 3127 3131 3136 3141 3144 3147 3150 3151 3152 3154 3155 3156 3158 3158 3159 3158 3158 3158 3158 3158 3158 3157 3157 3157 3156 3155 3154 3151 3149
3074 3075 3079 3082 3086 3088 3091 3095 3098 3101 3106 3112 3116 3121 3126 3130 3134 3139 3142 3145 3148 3149 3150 3152 3153 3154 3157 3157 3156 3156 3154 3154 3153 3153 3153 3153 3153 3153 3151 3150 3147 3145 3143
3077 3075 3075 3078 3083 3086 3088 3091 3094 3100 3103 3109 3113 3117 3121 3127 3132 3135 3138 3141 3146 3147 3148 3149 3149 3152 3155 3155 3153 3152 3151 3149 3149 3150 3150 3148 3148 3148 3147 3144 3142 3139 3136
3079 3078 3078 3077 3080 3082 3085 3090 3093 3098 3102 3107 3112 3114 3120 3124 3129 3134 3137 3139 3142 3144 3144 3145 3147 3150 3151 3151 3151 3149 3146 3146 3145 3144 3142 3141 3141 3140 3140 3138 3135 3132 3131
3081 3081 3081 3082 3080 3081 3085 3088 3092 3097 3101 3104 3107 3110 3116 3120 3125 3131 3135 3137 3139 3139 3141 3142 3145 3147 3147 3146 3145 3144 3139 3140 3141 3140 3136 3133 3131 3130 3130 3128 3127 3125 3123
3083 3083 3084 3084 3085 3085 3085 3089 3092 3095 3098 3101 3105 3109 3114 3118 3123 3128 3132 3134 3136 3137 3137 3139 3140 3142 3142 3142 3141 3139 3136 3133 3134 3131 3130 3128 3126 3123 3121 3120 3117 3116 3115
3084 3085 3086 3086 3088 3090 3091 3092 3095 3097 3102 3105 3108 3110 3113 3116 3120 3124 3127 3130 3131 3132 3133 3135 3135 3136 3136 3136 3135 3134 3131 3129 3127 3125 3122 3123 3119 3118 3115 3112 3110 3110 3109
3082 3084 3085 3087 3089 3090 3093 3093 3097 3101 3102 3104 3106 3109 3111 3114 3116 3120 3124 3125 3127 3127 3128 3129 3130 3130 3130 3130 3130 3128 3126 3124 3122 3120 3117 3116 3113 3111 3109 3107 3104 3103 3101